FW9033 Weather Reports


time (UTC)temp
C
wind
direction
speed
KPH
gust
KPH
rain 1hr
cm
rain 24hr
cm
rain mn
cm
humidity
%
barometer
mb
20260509213202 21 67 0.0 1.6 0.00 0.00 0.00 54 1006.5
20260509212701 21 73 1.6 1.6 0.00 0.00 0.00 54 1006.6
20260509212157 22 50 1.6 1.6 0.00 0.00 0.00 54 1006.5
20260509211653 21 45 0.0 0.0 0.00 0.00 0.00 54 1006.3
20260509211149 21 69 0.0 0.0 0.00 0.00 0.00 55 1006.5
20260509210646 21 80 1.6 1.6 0.00 0.00 0.00 54 1006.6
20260509210144 21 80 1.6 1.6 0.00 0.00 0.00 54 1006.6
20260509205638 21 80 1.6 3.2 0.00 0.00 0.00 55 1006.6
20260509205133 21 79 1.6 1.6 0.00 0.00 0.00 54 1006.2
20260509204629 21 42 0.0 1.6 0.00 0.00 0.00 54 1006.2
20260509204126 21 79 3.2 3.2 0.00 0.00 0.00 54 1006.0
20260509203622 21 85 6.4 8.0 0.00 0.00 0.00 52 1006.1
20260509203120 22 67 1.6 3.2 0.00 0.00 0.00 53 1006.3
20260509202620 22 65 0.0 1.6 0.00 0.00 0.00 51 1006.2
20260509202115 22 71 1.6 1.6 0.00 0.00 0.00 52 1006.3
20260509201610 21 88 1.6 1.6 0.00 0.00 0.00 52 1006.6
20260509201108 21 89 3.2 3.2 0.00 0.00 0.00 52 1006.0
20260509200603 22 166 6.4 8.0 0.00 0.00 0.00 51 1006.6
20260509200059 21 57 0.0 0.0 0.00 0.00 0.00 51 1006.6
20260509195555 21 122 6.4 8.0 0.00 0.00 0.00 52 1006.3
20260509195050 21 117 8.0 9.7 0.00 0.00 0.00 53 1006.6
20260509194549 21 66 0.0 0.0 0.00 0.00 0.00 53 1006.5
20260509194048 21 64 0.0 1.6 0.00 0.00 0.00 53 1006.7
20260509193542 22 101 8.0 9.7 0.00 0.00 0.00 51 1006.6
20260509193039 23 18 1.6 3.2 0.00 0.00 0.00 50 1006.7
20260509192536 23 36 1.6 1.6 0.00 0.00 0.00 50 1007.0
20260509192031 22 174 4.8 8.0 0.00 0.00 0.00 51 1006.8
20260509191525 22 194 3.2 4.8 0.00 0.00 0.00 53 1006.7
20260509191021 21 139 6.4 9.7 0.00 0.00 0.00 54 1006.8
20260509190519 21 147 3.2 4.8 0.00 0.00 0.00 54 1006.8
20260509190017 22 143 8.0 9.7 0.00 0.00 0.00 51 1006.8
20260509185514 21 131 6.4 8.0 0.00 0.00 0.00 53 1006.7
20260509185010 21 116 8.0 8.0 0.00 0.00 0.00 52 1006.9
20260509184509 22 169 8.0 11.3 0.00 0.00 0.00 51 1007.1
20260509184004 21 87 3.2 3.2 0.00 0.00 0.00 54 1007.0
20260509183459 21 165 4.8 8.0 0.00 0.00 0.00 52 1007.2
20260509182955 20 338 4.8 4.8 0.00 0.00 0.00 54 1007.4
20260509182452 21 121 4.8 4.8 0.00 0.00 0.00 52 1007.7
20260509181949 21 131 9.7 11.3 0.00 0.00 0.00 52 1007.7
20260509181447 21 21 4.8 8.0 0.00 0.00 0.00 51 1007.5
20260509180945 21 85 3.2 3.2 0.00 0.00 0.00 54 1007.9
20260509180440 21 108 1.6 3.2 0.00 0.00 0.00 54 1008.0
20260509175937 20 145 6.4 9.7 0.00 0.00 0.00 54 1007.6
20260509175433 20 99 3.2 4.8 0.00 0.00 0.00 54 1007.9
20260509174929 20 59 1.6 3.2 0.00 0.00 0.00 54 1007.9
20260509174426 20 82 4.8 8.0 0.00 0.00 0.00 57 1008.2
20260509173922 19 152 8.0 9.7 0.00 0.00 0.00 55 1008.1
20260509173421 20 49 1.6 1.6 0.00 0.00 0.00 55 1008.1
20260509172918 20 48 3.2 3.2 0.00 0.00 0.00 56 1008.3
20260509172415 20 82 3.2 3.2 0.00 0.00 0.00 55 1008.4
20260509171910 19 30 4.8 4.8 0.00 0.00 0.00 55 1008.6
20260509171407 19 83 3.2 3.2 0.00 0.00 0.00 56 1008.6
20260509170903 19 57 3.2 4.8 0.00 0.00 0.00 56 1008.6
20260509170359 19 47 4.8 4.8 0.00 0.00 0.00 55 1008.5
20260509165854 19 48 1.6 1.6 0.00 0.00 0.00 55 1008.7
20260509165349 20 6 1.6 3.2 0.00 0.00 0.00 53 1008.8
20260509164845 20 27 1.6 3.2 0.00 0.00 0.00 52 1009.0
20260509164341 20 48 4.8 8.0 0.00 0.00 0.00 54 1009.0
20260509163837 20 87 4.8 9.7 0.00 0.00 0.00 52 1008.7
20260509163334 20 50 0.0 1.6 0.00 0.00 0.00 51 1008.9
20260509162833 20 28 3.2 4.8 0.00 0.00 0.00 50 1008.9
20260509162326 20 34 3.2 3.2 0.00 0.00 0.00 49 1008.9
20260509161823 20 101 1.6 1.6 0.00 0.00 0.00 51 1008.8
20260509161319 20 32 6.4 8.0 0.00 0.00 0.00 51 1008.7
20260509160815 20 40 3.2 4.8 0.00 0.00 0.00 52 1008.7
20260509160311 20 135 8.0 9.7 0.00 0.00 0.00 50 1008.4
20260509155806 20 146 8.0 9.7 0.00 0.00 0.00 52 1008.4
20260509155306 20 97 3.2 3.2 0.00 0.00 0.00 51 1008.3
20260509154759 20 24 6.4 9.7 0.00 0.00 0.00 51 1008.6
20260509154256 20 70 0.0 1.6 0.00 0.00 0.00 54 1008.4
20260509153753 20 38 4.8 4.8 0.00 0.00 0.00 52 1008.7
20260509153249 20 42 3.2 4.8 0.00 0.00 0.00 51 1008.6
20260509152746 19 57 3.2 3.2 0.00 0.00 0.00 53 1008.9
20260509152242 19 15 3.2 3.2 0.00 0.00 0.00 53 1008.6
20260509151739 19 72 1.6 1.6 0.00 0.00 0.00 53 1008.9
20260509151235 19 59 0.0 1.6 0.00 0.00 0.00 54 1009.2
20260509150734 19 68 3.2 3.2 0.00 0.00 0.00 51 1009.0
20260509150232 20 116 6.4 9.7 0.00 0.00 0.00 52 1008.9
20260509145729 19 133 4.8 8.0 0.00 0.00 0.00 53 1008.9
20260509145228 19 100 8.0 9.7 0.00 0.00 0.00 53 1008.8
20260509144725 20 107 4.8 8.0 0.00 0.00 0.00 54 1008.8
20260509144222 20 77 1.6 3.2 0.00 0.00 0.00 50 1008.8
20260509143720 20 120 3.2 3.2 0.00 0.00 0.00 48 1009.2
20260509143217 20 308 3.2 4.8 0.00 0.00 0.00 51 1008.9
20260509142712 20 61 4.8 8.0 0.00 0.00 0.00 46 1009.0
20260509142209 20 68 1.6 3.2 0.00 0.00 0.00 48 1009.2
20260509141705 20 53 0.0 1.6 0.00 0.00 0.00 48 1009.3
20260509141202 19 14 1.6 3.2 0.00 0.00 0.00 50 1009.7
20260509140658 18 56 1.6 1.6 0.00 0.00 0.00 50 1009.7
20260509140156 18 55 0.0 1.6 0.00 0.00 0.00 49 1009.4
20260509135653 18 52 0.0 1.6 0.00 0.00 0.00 51 1009.3
20260509135151 17 102 1.6 3.2 0.00 0.00 0.00 52 1009.5
20260509134647 17 69 0.0 1.6 0.00 0.00 0.00 51 1009.5
20260509134145 17 43 1.6 3.2 0.00 0.00 0.00 52 1009.4
20260509133642 17 49 0.0 1.6 0.00 0.00 0.00 54 1009.3
20260509133139 17 23 3.2 3.2 0.00 0.00 0.00 57 1009.3
20260509132637 16 46 1.6 1.6 0.00 0.00 0.00 57 1009.1
20260509132136 16 45 0.0 0.0 0.00 0.00 0.00 60 1009.3
20260509131631 16 57 0.0 0.0 0.00 0.00 0.00 62 1009.5
20260509131129 16 57 0.0 0.0 0.00 0.00 0.00 61 1009.2
20260509130624 15 56 0.0 1.6 0.00 0.00 0.00 62 1009.5
20260509130121 15 57 0.0 0.0 0.00 0.00 0.00 61 1009.6
20260509125617 15 66 0.0 0.0 0.00 0.00 0.00 59 1009.5
20260509125114 15 67 0.0 0.0 0.00 0.00 0.00 59 1009.6
20260509124611 15 64 0.0 0.0 0.00 0.00 0.00 58 1009.4
20260509124108 15 54 0.0 0.0 0.00 0.00 0.00 59 1009.4
20260509123606 15 52 0.0 1.6 0.00 0.00 0.00 60 1009.7
20260509123102 15 36 1.6 1.6 0.00 0.00 0.00 59 1009.4
20260509122558 15 45 0.0 0.0 0.00 0.00 0.00 60 1009.6
20260509122056 14 59 0.0 0.0 0.00 0.00 0.00 63 1009.4
20260509121552 14 49 0.0 0.0 0.00 0.00 0.00 64 1009.3
20260509121050 14 55 0.0 0.0 0.00 0.00 0.00 65 1009.5
20260509120548 14 67 0.0 0.0 0.00 0.00 0.00 60 1009.4
20260509120046 14 65 0.0 0.0 0.00 0.00 0.00 60 1009.2
20260509115542 13 65 0.0 0.0 0.00 0.00 0.00 61 1009.4
20260509115040 13 51 1.6 1.6 0.00 0.00 0.00 63 1009.3
20260509114538 13 44 0.0 0.0 0.00 0.00 0.00 62 1009.5
20260509114037 13 61 0.0 0.0 0.00 0.00 0.00 63 1009.4
20260509113535 13 61 1.6 1.6 0.00 0.00 0.00 62 1009.1
20260509113032 13 51 0.0 0.0 0.00 0.00 0.00 62 1009.4
20260509112528 13 33 1.6 1.6 0.00 0.00 0.00 61 1009.1
20260509112025 13 47 0.0 0.0 0.00 0.00 0.00 63 1009.3
20260509111523 13 47 0.0 0.0 0.00 0.00 0.00 63 1008.9
20260509111020 13 45 0.0 0.0 0.00 0.00 0.00 63 1009.0
20260509110516 13 61 0.0 0.0 0.00 0.00 0.00 63 1008.9
20260509110013 13 55 0.0 0.0 0.00 0.00 0.00 64 1009.0
20260509105512 13 50 0.0 0.0 0.00 0.00 0.00 62 1009.0
20260509105009 13 36 0.0 1.6 0.00 0.00 0.00 64 1008.9
20260509104506 13 54 0.0 0.0 0.00 0.00 0.00 63 1008.9
20260509104003 13 47 0.0 0.0 0.00 0.00 0.00 62 1009.0
20260509103500 13 48 0.0 0.0 0.00 0.00 0.00 63 1008.9
20260509102958 13 48 0.0 0.0 0.00 0.00 0.00 63 1008.8
20260509102455 13 61 0.0 0.0 0.00 0.00 0.00 63 1009.0
20260509101952 13 31 0.0 0.0 0.00 0.00 0.00 62 1009.0
20260509101448 13 46 0.0 0.0 0.00 0.00 0.00 62 1008.8
20260509100946 13 47 0.0 0.0 0.00 0.00 0.00 61 1008.7
20260509100443 13 44 0.0 0.0 0.00 0.00 0.00 61 1008.8
20260509095939 13 50 0.0 0.0 0.00 0.00 0.00 61 1008.9
20260509095436 13 50 0.0 0.0 0.00 0.00 0.00 61 1008.6
20260509094933 13 39 0.0 0.0 0.00 0.00 0.00 60 1008.9
20260509094430 13 44 1.6 1.6 0.00 0.00 0.00 61 1008.8
20260509093927 13 40 1.6 1.6 0.00 0.00 0.00 59 1008.8
20260509093425 13 29 1.6 1.6 0.00 0.00 0.00 59 1008.8
20260509092923 13 47 0.0 1.6 0.00 0.00 0.00 59 1008.6
20260509092420 13 30 0.0 0.0 0.00 0.00 0.00 60 1008.7
20260509091919 13 51 0.0 0.0 0.00 0.00 0.00 62 1008.6
20260509091415 13 54 0.0 0.0 0.00 0.00 0.00 61 1008.8
20260509090912 13 55 0.0 0.0 0.00 0.00 0.00 59 1008.7
20260509090409 13 65 0.0 0.0 0.00 0.00 0.00 62 1008.6
20260509085907 13 36 0.0 0.0 0.00 0.00 0.00 62 1008.9
20260509085404 14 44 0.0 0.0 0.00 0.00 0.00 60 1008.8
20260509084900 14 53 0.0 0.0 0.00 0.00 0.00 59 1009.0
20260509084357 14 61 0.0 0.0 0.00 0.00 0.00 58 1009.0
20260509083855 14 43 0.0 0.0 0.00 0.00 0.00 57 1008.9
20260509083352 14 43 1.6 1.6 0.00 0.00 0.00 56 1008.9
20260509082848 14 72 0.0 0.0 0.00 0.00 0.00 57 1008.9
20260509082345 13 44 1.6 1.6 0.00 0.00 0.00 58 1008.9
20260509081842 13 42 0.0 0.0 0.00 0.00 0.00 58 1009.1
20260509081339 13 54 0.0 0.0 0.00 0.00 0.00 59 1009.1
20260509080837 14 41 0.0 0.0 0.00 0.00 0.00 59 1009.1
20260509080335 13 49 0.0 0.0 0.00 0.00 0.00 59 1009.1
20260509075833 13 54 0.0 0.0 0.00 0.00 0.00 59 1009.0
20260509075330 13 52 0.0 0.0 0.00 0.00 0.00 61 1009.0
20260509074827 13 52 0.0 0.0 0.00 0.00 0.00 62 1009.0
20260509074325 13 52 0.0 0.0 0.00 0.00 0.00 61 1009.3
20260509073821 13 52 0.0 0.0 0.00 0.00 0.00 61 1009.0
20260509073317 13 47 0.0 0.0 0.00 0.00 0.00 60 1009.0
20260509072814 14 43 0.0 0.0 0.00 0.00 0.00 61 1009.3
20260509072310 14 50 0.0 1.6 0.00 0.00 0.00 59 1009.1
20260509071807 15 53 0.0 0.0 0.00 0.00 0.00 57 1009.4
20260509071304 15 59 0.0 1.6 0.00 0.00 0.00 54 1009.2
20260509070801 15 47 0.0 1.6 0.00 0.00 0.00 54 1009.3
20260509070258 15 73 0.0 1.6 0.00 0.00 0.00 55 1009.3
20260509065754 15 68 0.0 0.0 0.00 0.00 0.00 56 1009.3
20260509065250 14 76 3.2 3.2 0.00 0.00 0.00 56 1009.3
20260509064747 14 46 0.0 0.0 0.00 0.00 0.00 57 1009.4
20260509064244 14 65 0.0 0.0 0.00 0.00 0.00 57 1009.4
20260509063742 14 66 0.0 0.0 0.00 0.00 0.00 56 1009.3
20260509063238 14 49 0.0 0.0 0.00 0.00 0.00 56 1009.6
20260509062735 13 65 0.0 1.6 0.00 0.00 0.00 58 1009.6
20260509062232 13 72 0.0 0.0 0.00 0.00 0.00 62 1009.5
20260509061729 13 67 0.0 0.0 0.00 0.00 0.00 64 1009.7
20260509061227 13 68 0.0 0.0 0.00 0.00 0.00 64 1009.7
20260509060724 13 66 0.0 0.0 0.00 0.00 0.00 64 1009.8
20260509060220 13 67 0.0 0.0 0.00 0.00 0.00 65 1009.7
20260509055716 13 67 0.0 0.0 0.00 0.00 0.00 65 1009.6
20260509055212 13 67 0.0 0.0 0.00 0.00 0.00 64 1009.7
20260509054709 13 67 0.0 0.0 0.00 0.00 0.00 62 1009.8
20260509054206 13 59 0.0 0.0 0.00 0.00 0.00 64 1009.7
20260509053705 13 59 0.0 0.0 0.00 0.00 0.00 64 1009.8
20260509053201 13 59 0.0 0.0 0.00 0.00 0.00 64 1009.8
20260509052659 13 59 0.0 0.0 0.00 0.00 0.00 63 1009.8
20260509052156 12 71 0.0 0.0 0.00 0.00 0.00 64 1009.7
20260509051654 12 61 0.0 0.0 0.00 0.00 0.00 66 1009.9
20260509051151 12 62 0.0 0.0 0.00 0.00 0.00 67 1009.9
20260509050648 12 62 0.0 0.0 0.00 0.00 0.00 68 1009.9
20260509050144 13 63 0.0 0.0 0.00 0.00 0.00 68 1009.8
20260509045642 12 64 0.0 0.0 0.00 0.00 0.00 68 1009.9
20260509045139 12 59 0.0 0.0 0.00 0.00 0.00 67 1009.7
20260509044636 13 65 0.0 0.0 0.00 0.00 0.00 66 1009.7
20260509044133 13 66 0.0 0.0 0.00 0.00 0.00 65 1009.8
20260509043630 13 67 0.0 0.0 0.00 0.00 0.00 65 1009.5
20260509043125 13 62 0.0 0.0 0.00 0.00 0.00 66 1009.7
20260509042622 13 78 0.0 0.0 0.00 0.00 0.00 64 1009.6
20260509042118 13 62 0.0 0.0 0.00 0.00 0.00 64 1009.8
20260509041615 14 66 1.6 1.6 0.00 0.00 0.00 62 1009.7
20260509041113 14 9 1.6 1.6 0.00 0.00 0.00 60 1009.5
20260509040611 14 78 1.6 1.6 0.00 0.00 0.00 60 1009.9
20260509040108 14 74 0.0 1.6 0.00 0.00 0.00 59 1009.6
20260509035604 13 84 1.6 1.6 0.00 0.00 0.00 60 1009.7
20260509035100 13 76 1.6 1.6 0.00 0.00 0.00 63 1010.0
20260509034559 13 46 0.0 0.0 0.00 0.00 0.00 68 1009.7
20260509034055 13 56 0.0 0.0 0.00 0.00 0.00 67 1009.9
20260509033553 13 57 0.0 0.0 0.00 0.00 0.00 65 1009.7
20260509033049 13 85 1.6 1.6 0.00 0.00 0.00 65 1009.8
20260509032547 13 54 0.0 0.0 0.00 0.00 0.00 64 1009.9
20260509032044 13 57 0.0 0.0 0.00 0.00 0.00 63 1009.9
20260509031542 13 58 0.0 0.0 0.00 0.00 0.00 62 1009.9
20260509031038 13 58 0.0 0.0 0.00 0.00 0.00 63 1010.1
20260509030537 13 57 0.0 0.0 0.00 0.00 0.00 65 1009.8
20260509030033 13 59 0.0 0.0 0.00 0.00 0.00 64 1009.8
20260509025529 13 59 0.0 0.0 0.00 0.00 0.00 64 1009.8
20260509025025 13 59 0.0 0.0 0.00 0.00 0.00 63 1010.2
20260509024521 13 59 0.0 0.0 0.00 0.00 0.00 62 1010.0
20260509024017 14 44 0.0 0.0 0.00 0.00 0.00 61 1010.1
20260509023515 15 53 0.0 0.0 0.00 0.00 0.00 57 1010.1
20260509023012 15 52 0.0 0.0 0.00 0.00 0.00 55 1010.1
20260509022508 15 78 0.0 0.0 0.00 0.00 0.00 54 1009.9
20260509022006 15 78 0.0 0.0 0.00 0.00 0.00 55 1009.9
20260509021503 13 77 0.0 0.0 0.00 0.00 0.00 57 1010.1
20260509021000 13 52 0.0 0.0 0.00 0.00 0.00 62 1010.0
20260509020458 13 51 0.0 0.0 0.00 0.00 0.00 62 1010.1
20260509015954 13 51 0.0 0.0 0.00 0.00 0.00 62 1009.9
20260509015454 13 51 0.0 0.0 0.00 0.00 0.00 60 1009.8
20260509014950 14 51 0.0 0.0 0.00 0.00 0.00 59 1009.9
20260509014447 14 51 0.0 0.0 0.00 0.00 0.00 58 1010.0
20260509013943 15 51 0.0 0.0 0.00 0.00 0.00 56 1010.2
20260509013440 15 50 0.0 0.0 0.00 0.00 0.00 55 1009.9
20260509012936 16 50 0.0 0.0 0.00 0.00 0.00 52 1009.9
20260509012432 16 50 0.0 0.0 0.00 0.00 0.00 50 1009.8
20260509011930 16 50 0.0 1.6 0.00 0.00 0.00 50 1009.8
20260509011427 16 67 0.0 0.0 0.00 0.00 0.00 50 1009.6
20260509010925 16 71 0.0 0.0 0.00 0.00 0.00 50 1009.9
20260509010422 17 59 0.0 0.0 0.00 0.00 0.00 50 1009.6
20260509005919 17 49 0.0 0.0 0.00 0.00 0.00 48 1009.6
20260509005417 17 83 1.6 1.6 0.00 0.00 0.00 47 1009.6
20260509004917 17 72 0.0 0.0 0.00 0.00 0.00 46 1009.8
20260509004414 17 79 1.6 1.6 0.00 0.00 0.00 46 1009.6
20260509003912 17 79 0.0 1.6 0.00 0.00 0.00 46 1009.6
20260509003409 17 52 0.0 1.6 0.00 0.00 0.00 45 1009.5
20260509002905 18 66 0.0 0.0 0.00 0.00 0.00 45 1009.5
20260509002404 18 67 0.0 0.0 0.00 0.00 0.00 45 1009.5
20260509001901 18 73 0.0 0.0 0.00 0.00 0.00 44 1009.4
20260509001356 18 61 1.6 1.6 0.00 0.00 0.00 43 1009.3
20260509000854 18 51 1.6 1.6 0.00 0.00 0.00 42 1009.3
20260509000352 19 95 1.6 1.6 0.00 0.00 0.00 41 1009.0
20260508235848 19 82 1.6 1.6 0.00 0.00 0.00 40 1009.4
20260508235345 20 80 1.6 1.6 0.00 0.00 0.00 40 1009.3
20260508234842 20 91 0.0 0.0 0.00 0.00 0.00 39 1009.2
20260508234338 20 70 0.0 0.0 0.00 0.00 0.00 38 1009.4
20260508233837 20 66 1.6 1.6 0.00 0.00 0.00 37 1009.2
20260508233336 20 65 0.0 0.0 0.00 0.00 0.00 36 1009.1
20260508232832 20 78 3.2 3.2 0.00 0.00 0.00 37 1009.1
20260508232329 20 53 0.0 0.0 0.00 0.00 0.00 37 1009.0
20260508231827 21 26 1.6 3.2 0.00 0.00 0.00 37 1009.0
20260508231323 21 67 1.6 1.6 0.00 0.00 0.00 35 1009.2
20260508230820 21 69 0.0 0.0 0.00 0.00 0.00 35 1009.1
20260508230316 21 42 0.0 0.0 0.00 0.00 0.00 35 1008.9
20260508225814 21 45 1.6 1.6 0.00 0.00 0.00 34 1009.0
20260508225310 21 24 3.2 4.8 0.00 0.00 0.00 34 1009.1
20260508224809 21 45 0.0 1.6 0.00 0.00 0.00 33 1008.9
20260508224306 21 37 3.2 3.2 0.00 0.00 0.00 33 1009.1
20260508223803 21 342 1.6 4.8 0.00 0.00 0.00 35 1009.0
20260508223301 21 45 0.0 1.6 0.00 0.00 0.00 34 1009.0
20260508222758 21 74 1.6 1.6 0.00 0.00 0.00 35 1009.1
20260508222255 21 38 3.2 3.2 0.00 0.00 0.00 33 1009.0
20260508221751 21 45 3.2 4.8 0.00 0.00 0.00 33 1009.0
20260508221247 22 75 1.6 1.6 0.00 0.00 0.00 33 1008.9
20260508220743 21 48 1.6 1.6 0.00 0.00 0.00 33 1009.0
20260508220240 21 15 3.2 3.2 0.00 0.00 0.00 33 1008.7
20260508215736 22 46 0.0 1.6 0.00 0.00 0.00 32 1009.0
20260508215233 22 47 0.0 0.0 0.00 0.00 0.00 31 1008.9
20260508214731 22 5 1.6 3.2 0.00 0.00 0.00 32 1008.9
20260508214228 22 321 3.2 8.0 0.00 0.00 0.00 32 1008.9
20260508213724 22 34 0.0 1.6 0.00 0.00 0.00 31 1009.0
20260508213221 22 41 1.6 3.2 0.00 0.00 0.00 31 1009.1